Regional Weather Roundup
Issued by NWS

Home | Current Version | Previous Version | Text Only | Print | Product List | Glossary Off
Versions: 1 2 3 4 5 6 7 8 9 10 11 12 13 14 15 16 17 18 19 20 21 22 23 24 25 26 27 28 29 30 31 32 33 34 35 36 37 38 39 40 41 42 43 44 45 46 47 48 49 50

000
ASUS43 KOAX 220810
RWRNE

WEATHER ROUNDUP FOR NEBRASKA
NATIONAL WEATHER SERVICE OMAHA NE
300 AM CDT WED MAR 22 2017

NOTES: SATELLITE DATA IS BEING USED TO AUGMENT CLOUD COVER ABOVE
       12000 FEET.
       "FAIR" INDICATES FEW OR NO CLOUDS BELOW 12,000 FEET WITH NO
       SIGNIFICANT WEATHER AND/OR OBSTRUCTIONS TO VISIBILITY.

  * THESE STATIONS DO NOT REPORT WEATHER SUCH AS RAIN...SNOW OR FOG.

NEZ001>004-019>022-054>056-220900-
NEBRASKA PANHANDLE

CITY           SKY/WX    TMP DP  RH WIND       PRES   REMARKS
SCOTTSBLUFF    CLOUDY    39  31  72 SE18      30.14F WCI  30
ALLIANCE       CLOUDY    36  31  82 S21G31    30.17S WCI  25
CHADRON        CLOUDY    40  32  73 S28G35    30.10F WCI  29
KIMBALL        CLOUDY    38  27  63 S18       30.14F WCI  28
SIDNEY         PTCLDY    34  30  85 S16       30.19F WCI  24
$$

NEZ057>060-069>072-079>082-220900-
SOUTHWEST NEBRASKA

CITY           SKY/WX    TMP DP  RH WIND       PRES   REMARKS
NORTH PLATTE   PTCLDY    33  26  75 SE8       30.32R WCI  26
IMPERIAL       CLOUDY    37  30  75 SE23G29   30.26F WCI  26
LEXINGTON      CLOUDY    35  26  71 E12       30.31F WCI  26
MCCOOK         MOCLDY    35  26  69 SE8       30.33S WCI  29
OGALLALA       DRIZZLE   38  33  80 SE9       30.27S WCI  32
$$

NEZ005>010-023>029-035>040-094-220900-
NORTH CENTRAL NEBRASKA

CITY           SKY/WX    TMP DP  RH WIND       PRES   REMARKS
VALENTINE      CLOUDY    32  26  78 SE13      30.30F WCI  22
AINSWORTH      MIX PCPN  32  29  89 SE12      30.31R WCI  23
BROKEN BOW     CLOUDY    34  27  75 E17G25    30.28F WCI  23
O`NEILL        CLOUDY    32  27  82 E14       30.39F WCI  22
THEDFORD       MOCLDY    33  26  75 S9        30.31R WCI  25
$$

NEZ041-046>049-061>064-073>077-083>087-220900-
SOUTH CENTRAL NEBRASKA

CITY           SKY/WX    TMP DP  RH WIND       PRES   REMARKS
GRAND ISLAND   MOCLDY    35  26  69 NE8       30.39S WCI  29
AURORA         MOCLDY    36  24  62 E9        30.38S WCI  29
HASTINGS       PTCLDY    36  24  62 NE10      30.36F WCI  28
HEBRON         CLOUDY    33  26  73 CALM      30.38S
HOLDREGE       CLOUDY    35  23  61 E13       30.34S WCI  26
KEARNEY *      MOCLDY    36  23  60 E9        30.35F WCI  29
YORK           CLOUDY    37  25  60 E12       30.39R WCI  30
$$

NEZ011>018-030>034-042>045-220900-
NORTHEAST NEBRASKA

CITY           SKY/WX    TMP DP  RH WIND       PRES   REMARKS
NORFOLK        CLOUDY    32  22  66 E13       30.42S WCI  22
ALBION         CLOUDY    35  24  63 E7        30.41S WCI  29
BLAIR          CLOUDY    35  22  60 NE12      30.43R WCI  26
FREMONT        CLOUDY    36  23  60 E12G17    30.43S WCI  27
TEKAMAH        CLOUDY    34  22  61 NE8       30.46R WCI  27
WAYNE          CLOUDY    32  24  71 E8        30.45R WCI  25
$$

NEZ050>053-065>068-078-088>093-220900-
SOUTHEAST NEBRASKA

CITY           SKY/WX    TMP DP  RH WIND       PRES   REMARKS
LINCOLN        CLOUDY    38  26  62 NE13      30.42S WCI  30
OMAHA EPPLEY   MOCLDY    36  20  52 NE9       30.44S WCI  29
BEATRICE       CLOUDY    36  25  65 NE7       30.39S WCI  31
FALLS CITY     CLOUDY    38  24  57 NE9       30.38R WCI  31
NEBRASKA CITY  CLOUDY    35  21  57 NE9       30.40S WCI  28
PLATTSMOUTH    MOCLDY    35  20  54 NE9G17    30.42R WCI  28
$$

NEZ044-045-051>053-067-220900-
OMAHA AREA

CITY           SKY/WX    TMP DP  RH WIND       PRES   REMARKS
OMAHA EPPLEY   MOCLDY    36  20  52 NE9       30.44S WCI  29
BLAIR          CLOUDY    35  22  60 NE12      30.43R WCI  26
FREMONT        CLOUDY    36  23  60 E12G17    30.43S WCI  27
MILLARD        CLOUDY    38  23  55 NE6       30.44R WCI  34
OFFUTT AFB     MOCLDY    35  19  51 NE12      30.43R WCI  27
PLATTSMOUTH    MOCLDY    35  20  54 NE9G17    30.42R WCI  28
WAHOO          CLOUDY    37  23  57 NE12      30.43R WCI  29
$$




USA.gov is the U.S. government's official web portal to all federal, state and local government web resources and services.